Delaware, OH

3:21 PM EDT on July 24, 2016 (GMT -0400)
Delaware Municipal

Weather History for KDLZ - November, 2012

Change the Weather History Date:

Sunday, November 11, 2012

  Actual Average Record
Temperature  
Mean Temperature 56 °F -  
Max Temperature 68 °F 52 °F 70 °F (1938)
Min Temperature 44 °F 32 °F 17 °F (1957)
Degree Days  
Heating Degree Days 9    
Growing Degree Days 6 (Base 50)    
Moisture  
Dew Point 35 °F    
Average Humidity 46    
Maximum Humidity 66    
Minimum Humidity 28    
Precipitation  
Precipitation 0.00 in - - ()
Sea Level Pressure  
Sea Level Pressure 30.18 in    
Wind  
Wind Speed 9 mph (South)    
Max Wind Speed 24 mph    
Max Gust Speed 30 mph    
Visibility 10 miles    
Events      
Averages and records for this station are not official NWS values.
T = Trace of Precipitation, MM = Missing Value Source: NWS Daily Summary

Daily Weather History Graph

Daily Weather History Graph

Search for Another Location

Airport or City:

Trip Planner

Search our weather history database for the weather conditions in past years. The results will help you decide how hot, cold, wet, or windy it might be!

Date:

Astronomy

Nov. 11, 2012 Rise Set
Actual Time 7:14 AM EST 5:18 PM EST
Civil Twilight 6:45 AM EST 5:47 PM EST
Nautical Twilight 6:12 AM EST 6:20 PM EST
Astronomical Twilight 5:40 AM EST 6:52 PM EST
Moon 4:26 AM EST (11/11) 3:41 PM EST (11/11)
Length of Visible Light 11h 02m
Length of Day
10h 04m
Waning Crescent, 7% of the Moon is Illuminated
Nov 11
Waning Crescent
Nov 13
New
Nov 20
First Quarter
Nov 28
Full
Dec 6
Last Quarter

Hourly Weather History & Observations

Time (EST) Temp. Windchill Dew Point Humidity Pressure Visibility Wind Dir Wind Speed Gust Speed Precip Events Conditions
12:18 AM 53.6 °F - 37.4 °F 54% 30.17 in 10.0 mi SSW 5.8 mph - N/A   Clear
12:38 AM 51.8 °F - 37.4 °F 58% 30.17 in 10.0 mi South 6.9 mph - N/A   Clear
12:57 AM 51.8 °F - 37.4 °F 58% 30.17 in 10.0 mi South 5.8 mph - N/A   Clear
1:18 AM 51.8 °F - 37.4 °F 58% 30.17 in 10.0 mi South 5.8 mph - N/A   Clear
1:37 AM 50.0 °F - 37.4 °F 62% 30.17 in 10.0 mi South 6.9 mph - N/A   Clear
1:57 AM 51.8 °F - 37.4 °F 58% 30.17 in 10.0 mi South 9.2 mph - N/A   Clear
2:18 AM 51.8 °F - 37.4 °F 58% 30.17 in 10.0 mi South 8.1 mph - N/A   Clear
2:37 AM 51.8 °F - 37.4 °F 58% 30.18 in 10.0 mi South 8.1 mph - N/A   Clear
2:57 AM 51.8 °F - 35.6 °F 54% 30.18 in 10.0 mi South 6.9 mph - N/A   Clear
3:18 AM 50.0 °F - 35.6 °F 58% 30.19 in 10.0 mi South 5.8 mph - N/A   Clear
3:37 AM 48.2 °F - 35.6 °F 62% 30.19 in 10.0 mi SSE 5.8 mph - N/A   Clear
3:58 AM 50.0 °F - 35.6 °F 58% 30.19 in 10.0 mi South 5.8 mph - N/A   Clear
4:18 AM 51.8 °F - 35.6 °F 54% 30.20 in 10.0 mi South 9.2 mph - N/A   Clear
4:37 AM 51.8 °F - 35.6 °F 54% 30.20 in 10.0 mi SSW 9.2 mph - N/A   Clear
4:58 AM 50.0 °F - 35.6 °F 58% 30.21 in 10.0 mi South 9.2 mph - N/A   Clear
5:18 AM 50.0 °F - 35.6 °F 58% 30.22 in 10.0 mi South 10.4 mph - N/A   Clear
5:37 AM 48.2 °F - 33.8 °F 58% 30.23 in 10.0 mi South 6.9 mph - N/A   Clear
5:58 AM 50.0 °F - 33.8 °F 54% 30.24 in 10.0 mi SSW 5.8 mph - N/A   Clear
6:37 AM 46.4 °F 43.5 °F 33.8 °F 62% 30.25 in 10.0 mi South 5.8 mph - N/A   Clear
6:58 AM 46.4 °F 42.9 °F 33.8 °F 62% 30.26 in 10.0 mi SSE 6.9 mph - N/A   Clear
7:18 AM 44.6 °F 40.2 °F 33.8 °F 66% 30.26 in 10.0 mi SSE 8.1 mph - N/A   Clear
7:37 AM 46.4 °F 42.4 °F 35.6 °F 66% 30.27 in 10.0 mi SSE 8.1 mph - N/A   Clear
7:58 AM 46.4 °F 42.4 °F 35.6 °F 66% 30.27 in 10.0 mi SSE 8.1 mph - N/A   Clear
8:37 AM 51.8 °F - 35.6 °F 54% 30.27 in 10.0 mi South 12.7 mph - N/A   Clear
9:18 AM 55.4 °F - 35.6 °F 47% 30.27 in 10.0 mi South 13.8 mph - N/A   Clear
9:37 AM 55.4 °F - 35.6 °F 47% 30.27 in 10.0 mi South 12.7 mph 19.6 mph N/A   Clear
9:58 AM 59.0 °F - 35.6 °F 42% 30.27 in 10.0 mi South 16.1 mph 23.0 mph N/A   Clear
10:38 AM 60.8 °F - 35.6 °F 39% 30.26 in 10.0 mi South 17.3 mph 25.3 mph N/A   Clear
10:58 AM 62.6 °F - 35.6 °F 37% 30.26 in 10.0 mi South 17.3 mph 21.9 mph N/A   Clear
11:17 AM 62.6 °F - 35.6 °F 37% 30.25 in 10.0 mi SSW 16.1 mph 27.6 mph N/A   Clear
11:38 AM 62.6 °F - 35.6 °F 37% 30.24 in 10.0 mi SSW 19.6 mph 25.3 mph N/A   Clear
12:17 PM 62.6 °F - 35.6 °F 37% 30.23 in 10.0 mi SSW 15.0 mph 21.9 mph N/A   Clear
12:38 PM 64.4 °F - 35.6 °F 34% 30.21 in 10.0 mi SSW 17.3 mph 21.9 mph N/A   Clear
1:17 PM 66.2 °F - 33.8 °F 30% 30.20 in 10.0 mi SW 21.9 mph 29.9 mph N/A   Clear
1:38 PM 68.0 °F - 33.8 °F 28% 30.19 in 10.0 mi SSW 21.9 mph 29.9 mph N/A   Clear
1:58 PM 68.0 °F - 33.8 °F 28% 30.17 in 10.0 mi SSW 20.7 mph 28.8 mph N/A   Clear
2:17 PM 68.0 °F - 33.8 °F 28% 30.17 in 10.0 mi SSW 23.0 mph 28.8 mph N/A   Clear
2:38 PM 66.2 °F - 32.0 °F 28% 30.17 in 10.0 mi SSW 24.2 mph 29.9 mph N/A   Clear
2:58 PM 64.4 °F - 33.8 °F 32% 30.16 in 10.0 mi South 13.8 mph 25.3 mph N/A   Clear
3:17 PM 64.4 °F - 33.8 °F 32% 30.16 in 10.0 mi South 12.7 mph 25.3 mph N/A   Clear
3:38 PM 62.6 °F - 33.8 °F 34% 30.15 in 10.0 mi South 13.8 mph 18.4 mph N/A   Clear
3:58 PM 62.6 °F - 33.8 °F 34% 30.15 in 10.0 mi South 13.8 mph 20.7 mph N/A   Clear
4:17 PM 62.6 °F - 33.8 °F 34% 30.15 in 10.0 mi South 9.2 mph - N/A   Clear
4:38 PM 62.6 °F - 33.8 °F 34% 30.16 in 10.0 mi South 9.2 mph - N/A   Clear
4:57 PM 60.8 °F - 32.0 °F 34% 30.15 in 10.0 mi South 8.1 mph - N/A   Clear
5:18 PM 59.0 °F - 33.8 °F 39% 30.15 in 10.0 mi SSE 9.2 mph - N/A   Clear
5:38 PM 57.2 °F - 35.6 °F 44% 30.14 in 10.0 mi SSE 10.4 mph - N/A   Clear
5:57 PM 57.2 °F - 35.6 °F 44% 30.14 in 10.0 mi South 8.1 mph - N/A   Clear
6:18 PM 55.4 °F - 35.6 °F 47% 30.14 in 10.0 mi SSE 9.2 mph - N/A   Clear
6:38 PM 57.2 °F - 35.6 °F 44% 30.13 in 10.0 mi SSE 9.2 mph - N/A   Clear
6:57 PM 57.2 °F - 33.8 °F 41% 30.14 in 10.0 mi South 6.9 mph - N/A   Clear
7:18 PM 53.6 °F - 35.6 °F 51% 30.14 in 10.0 mi South 6.9 mph - N/A   Clear
7:38 PM 51.8 °F - 35.6 °F 54% 30.14 in 10.0 mi SSE 6.9 mph - N/A   Clear
7:57 PM 53.6 °F - 35.6 °F 51% 30.13 in 10.0 mi SSE 8.1 mph - N/A   Clear
8:18 PM 55.4 °F - 33.8 °F 44% 30.13 in 10.0 mi South 8.1 mph - N/A   Clear
8:38 PM 53.6 °F - 35.6 °F 51% 30.12 in 10.0 mi SSE 10.4 mph - N/A   Clear
8:57 PM 55.4 °F - 33.8 °F 44% 30.11 in 10.0 mi SSE 10.4 mph - N/A   Clear
9:18 PM 57.2 °F - 33.8 °F 41% 30.11 in 10.0 mi SSE 11.5 mph - N/A   Clear
9:38 PM 59.0 °F - 32.0 °F 36% 30.11 in 10.0 mi South 10.4 mph - N/A   Clear
9:57 PM 59.0 °F - 32.0 °F 36% 30.11 in 10.0 mi South 8.1 mph - N/A   Clear
10:18 PM 59.0 °F - 32.0 °F 36% 30.10 in 10.0 mi South 9.2 mph - N/A   Clear
10:38 PM 57.2 °F - 32.0 °F 38% 30.10 in 10.0 mi South 9.2 mph - N/A   Clear
10:57 PM 57.2 °F - 32.0 °F 38% 30.10 in 10.0 mi South 9.2 mph - N/A   Clear
11:18 PM 59.0 °F - 32.0 °F 36% 30.09 in 10.0 mi South 10.4 mph 18.4 mph N/A   Clear
11:38 PM 59.0 °F - 32.0 °F 36% 30.08 in 10.0 mi South 12.7 mph 18.4 mph N/A   Clear
11:57 PM 59.0 °F - 32.0 °F 36% 30.10 in 10.0 mi South 9.2 mph 16.1 mph N/A   Clear